Weather History for KPVC - December, 2012

Change the Weather History Date:

Tuesday, December 4, 2012

  Actual Average Record
Temperature  
Mean Temperature 50 °F -  
Max Temperature 53 °F 44 °F - (-1)
Min Temperature 48 °F 34 °F - (-1)
Degree Days  
Heating Degree Days 14    
Moisture  
Dew Point 48 °F    
Average Humidity 88    
Maximum Humidity 100    
Minimum Humidity 77    
Precipitation  
Precipitation 0.00 in - - ()
Sea Level Pressure  
Sea Level Pressure 30.18 in    
Wind  
Wind Speed 12 mph (South)    
Max Wind Speed 16 mph    
Max Gust Speed 21 mph    
Visibility 10 miles    
Events      
Averages and records for this station are not official NWS values.
T = Trace of Precipitation, MM = Missing Value Source: NWS Daily Summary

Daily Weather History Graph

Daily Weather History Graph

Search for Another Location

Airport or City:

Trip Planner

Search our weather history database for the weather conditions in past years. The results will help you decide how hot, cold, wet, or windy it might be!

Date:

Astronomy

Dec. 04, 2012 Rise Set
Actual Time 6:53 AM EST 4:09 PM EST
Civil Twilight 6:21 AM EST 4:40 PM EST
Nautical Twilight 5:46 AM EST 5:15 PM EST
Astronomical Twilight 5:13 AM EST 5:49 PM EST
Moon 9:57 PM EST (12/4) 10:42 AM EST (12/4)
Length of Visible Light 10h 19m
Length of Day
9h 16m
Waning Gibbous, 69% of the Moon is Illuminated
Dec 4
Waning Gibbous
Dec 6
Last Quarter
Dec 13
New
Dec 20
First Quarter
Dec 28
Full

Hourly Weather History & Observations

Time (EST) Temp. Dew Point Humidity Pressure Visibility Wind Dir Wind Speed Gust Speed Precip Events Conditions
9:15 AM 48.2 °F 46.4 °F 93% 30.33 in 10.0 mi South 10.4 mph - N/A   Clear
9:55 AM 51.8 °F 46.4 °F 82% 30.32 in 10.0 mi South 13.8 mph 19.6 mph N/A   Clear
10:35 AM 51.8 °F 46.4 °F 82% 30.31 in 10.0 mi South 11.5 mph 18.4 mph N/A   Clear
10:55 AM 53.6 °F 46.4 °F 77% 30.31 in 10.0 mi South 11.5 mph 17.3 mph N/A   Clear
11:15 AM 53.6 °F 46.4 °F 77% 30.29 in 10.0 mi South 13.8 mph - N/A   Mostly Cloudy
11:55 AM 51.8 °F 46.4 °F 82% 30.28 in 10.0 mi South 11.5 mph - N/A   Overcast
12:35 PM 51.8 °F 46.4 °F 82% 30.27 in 10.0 mi South 10.4 mph - N/A   Overcast
1:15 PM 51.8 °F 48.2 °F 88% 30.25 in 10.0 mi South 10.4 mph - N/A   Overcast
1:35 PM 51.8 °F 46.4 °F 82% 30.24 in 10.0 mi South 12.7 mph - N/A   Overcast
1:55 PM 51.8 °F 46.4 °F 82% 30.23 in 10.0 mi South 13.8 mph 18.4 mph N/A   Overcast
2:35 PM 51.8 °F 46.4 °F 82% 30.23 in 10.0 mi South 10.4 mph 16.1 mph N/A   Overcast
3:15 PM 51.8 °F 48.2 °F 88% 30.22 in 10.0 mi South 15.0 mph 19.6 mph N/A   Overcast
3:35 PM 51.8 °F 46.4 °F 82% 30.21 in 10.0 mi South 11.5 mph 19.6 mph N/A   Overcast
3:55 PM 51.8 °F 48.2 °F 88% 30.21 in 10.0 mi South 11.5 mph 16.1 mph N/A   Overcast
4:35 PM 50.0 °F 48.2 °F 94% 30.20 in 10.0 mi South 11.5 mph - N/A   Overcast
4:55 PM 50.0 °F 48.2 °F 94% 30.20 in 10.0 mi South 10.4 mph - N/A   Overcast
5:15 PM 50.0 °F 48.2 °F 94% 30.20 in 10.0 mi South 12.7 mph - N/A   Overcast
5:36 PM 51.8 °F 48.2 °F 88% 30.19 in 10.0 mi South 11.5 mph 18.4 mph N/A   Overcast
5:55 PM 51.8 °F 48.2 °F 88% 30.19 in 10.0 mi South 12.7 mph 18.4 mph N/A   Overcast
6:15 PM 51.8 °F 48.2 °F 88% 30.18 in 10.0 mi South 13.8 mph - N/A   Overcast
6:55 PM 50.0 °F 48.2 °F 94% 30.17 in 10.0 mi South 10.4 mph - N/A   Mostly Cloudy
7:15 PM 50.0 °F 48.2 °F 94% 30.16 in 10.0 mi South 11.5 mph - N/A   Overcast
7:35 PM 50.0 °F 48.2 °F 94% 30.15 in 10.0 mi South 11.5 mph 18.4 mph N/A   Mostly Cloudy
7:55 PM 48.2 °F 48.2 °F 100% 30.14 in 10.0 mi South 10.4 mph - N/A   Mostly Cloudy
8:15 PM 50.0 °F 48.2 °F 94% 30.13 in 10.0 mi South 15.0 mph 19.6 mph N/A   Mostly Cloudy
8:35 PM 50.0 °F 48.2 °F 94% 30.13 in 10.0 mi South 13.8 mph 20.7 mph N/A   Partly Cloudy
9:35 PM 50.0 °F 48.2 °F 94% 30.10 in 10.0 mi South 12.7 mph 19.6 mph N/A   Clear
9:55 PM 50.0 °F 48.2 °F 94% 30.09 in 10.0 mi South 13.8 mph 20.7 mph N/A   Clear
10:15 PM 51.8 °F 48.2 °F 88% 30.08 in 10.0 mi South 16.1 mph 20.7 mph N/A   Clear
10:35 PM 51.8 °F 48.2 °F 88% 30.07 in 10.0 mi South 13.8 mph 20.7 mph N/A   Clear
10:55 PM 51.8 °F 48.2 °F 88% 30.06 in 10.0 mi South 10.4 mph 17.3 mph N/A   Clear
11:15 PM 51.8 °F 48.2 °F 88% 30.05 in 10.0 mi South 13.8 mph 20.7 mph N/A   Clear
11:35 PM 51.8 °F 48.2 °F 88% 30.05 in 10.0 mi South 11.5 mph 20.7 mph N/A   Clear
11:55 PM 51.8 °F 48.2 °F 88% 30.04 in 10.0 mi South 13.8 mph - N/A   Scattered Clouds